Mount Holly, NJ

11:54 AM EDT on April 19, 2018 (GMT -0400)
South Jersey Regional

Weather History for KVAY - October, 2012

Change the Weather History Date:

Tuesday, October 2, 2012

  Actual Average (KPNE) Record (KPNE)
Temperature  
Mean Temperature 66 °F -  
Max Temperature 72 °F 68 °F 86 °F (2002)
Min Temperature 60 °F 48 °F 37 °F (1997)
Growing Degree Days 16 (Base 50)    
Moisture  
Dew Point 64 °F    
Average Humidity 88    
Maximum Humidity 100    
Minimum Humidity 70    
Precipitation  
Precipitation 0.48 in - - ()
Sea Level Pressure  
Sea Level Pressure 29.96 in    
Wind  
Wind Speed 2 mph (ENE)    
Max Wind Speed 9 mph    
Max Gust Speed -    
Visibility 5 miles    
Events Fog , Rain    
Averages and records for this station are not official NWS values.
T = Trace of Precipitation, MM = Missing Value Source: NWS Daily Summary

Daily Weather History Graph

Daily Weather History Graph

Search for Another Location

Airport or City:

Astronomy

Oct. 02, 2012 Rise Set
Actual Time 6:57 AM EDT 6:39 PM EDT
Civil Twilight 6:30 AM EDT 7:06 PM EDT
Nautical Twilight 5:58 AM EDT 7:37 PM EDT
Astronomical Twilight 5:27 AM EDT 8:09 PM EDT
Moon 7:50 PM EDT (10/2) 9:21 AM EDT (10/2)
Length of Visible Light 12h 36m
Length of Day
11h 42m
Waning Gibbous, 94% of the Moon is Illuminated
Oct 2
Waning Gibbous
Oct 8
Last Quarter
Oct 15
New
Oct 21
First Quarter
Oct 29
Full

Hourly Weather History & Observations

Time (EDT) Temp. Dew Point Humidity Pressure Visibility Wind Dir Wind Speed Gust Speed Precip Events Conditions
12:54 AM 60.1 °F 55.9 °F 86% 29.98 in 10.0 mi Calm Calm - 0.00 in   Mostly Cloudy
1:54 AM 61.0 °F 57.0 °F 87% 29.98 in 10.0 mi Calm Calm - N/A   Overcast
2:54 AM 61.0 °F 55.9 °F 83% 29.97 in 10.0 mi Calm Calm - N/A   Overcast
3:54 AM 61.0 °F 57.0 °F 87% 29.97 in 10.0 mi Calm Calm - N/A   Overcast
4:54 AM 61.0 °F 57.0 °F 87% 29.98 in 10.0 mi Calm Calm - N/A   Overcast
5:54 AM 62.1 °F 57.0 °F 84% 29.98 in 10.0 mi Calm Calm - N/A   Overcast
6:50 AM 62.6 °F 57.2 °F 82% 29.99 in 10.0 mi East 3.5 mph - N/A   Overcast
6:54 AM 62.1 °F 57.0 °F 84% 29.99 in 10.0 mi East 3.5 mph - N/A   Overcast
7:54 AM 64.0 °F 57.0 °F 78% 29.99 in 10.0 mi Variable 3.5 mph - N/A   Overcast
8:54 AM 66.9 °F 57.9 °F 73% 29.99 in 10.0 mi ESE 8.1 mph - N/A   Overcast
9:54 AM 68.0 °F 59.0 °F 73% 29.99 in 10.0 mi East 4.6 mph - N/A   Overcast
10:54 AM 70.0 °F 60.1 °F 71% 29.99 in 10.0 mi ESE 4.6 mph - N/A   Overcast
11:54 AM 71.1 °F 61.0 °F 70% 29.98 in 10.0 mi Variable 5.8 mph - N/A   Overcast
12:54 PM 71.1 °F 63.0 °F 75% 29.97 in 10.0 mi ESE 9.2 mph - 0.00 in   Overcast
1:45 PM 71.6 °F 64.4 °F 78% 29.96 in 1.2 mi Calm Calm - 0.07 in Rain Heavy Rain
1:47 PM 69.8 °F 64.4 °F 83% 29.96 in 0.8 mi Calm Calm - 0.08 in Rain Heavy Rain
1:54 PM 70.0 °F 66.0 °F 87% 29.96 in 0.8 mi Calm Calm - 0.10 in Rain Rain
1:58 PM 69.8 °F 66.2 °F 88% 29.95 in 2.0 mi Calm Calm - 0.01 in Rain Rain
2:11 PM 69.8 °F 66.2 °F 88% 29.95 in 4.0 mi East 4.6 mph - 0.01 in Rain Light Rain
2:39 PM 71.6 °F 68.0 °F 88% 29.94 in 6.0 mi East 5.8 mph - 0.02 in Rain Light Rain
2:54 PM 70.0 °F 68.0 °F 93% 29.94 in 2.0 mi East 3.5 mph - 0.02 in   Overcast
3:24 PM 69.8 °F 68.0 °F 94% 29.93 in 2.0 mi East 4.6 mph - N/A   Overcast
3:54 PM 70.0 °F 68.0 °F 93% 29.93 in 2.5 mi East 4.6 mph - N/A   Overcast
4:26 PM 69.8 °F 68.0 °F 94% 29.93 in 1.8 mi Calm Calm - N/A   Overcast
4:54 PM 70.0 °F 69.1 °F 97% 29.92 in 1.2 mi Calm Calm - N/A   Overcast
5:50 PM 69.8 °F 69.8 °F 100% 29.93 in 0.8 mi NNE 3.5 mph - 0.07 in Rain Heavy Rain
5:54 PM 70.0 °F 69.1 °F 97% 29.93 in 0.5 mi NNE 5.8 mph - 0.18 in Fog , Rain Heavy Rain
6:15 PM 69.8 °F 68.0 °F 94% 29.93 in 1.0 mi NNE 4.6 mph - 0.18 in Rain Heavy Rain
6:22 PM 69.8 °F 68.0 °F 94% 29.93 in 2.0 mi NNE 3.5 mph - 0.18 in Rain Light Rain
6:28 PM 69.8 °F 68.0 °F 94% 29.93 in 5.0 mi NNE 3.5 mph - 0.18 in Rain Light Rain
6:43 PM 69.8 °F 68.0 °F 94% 29.93 in 6.0 mi Calm Calm - 0.18 in   Overcast
6:50 PM 69.8 °F 68.0 °F 94% 29.93 in 6.0 mi Calm Calm - 0.18 in   Overcast
6:54 PM 69.1 °F 68.0 °F 96% 29.93 in 7.0 mi Calm Calm - 0.18 in   Overcast
7:44 PM 69.8 °F 68.0 °F 94% 29.95 in 2.0 mi Calm Calm - N/A   Overcast
8:07 PM 69.8 °F 68.0 °F 94% 29.95 in 1.0 mi NNE 3.5 mph - N/A   Overcast
8:14 PM 69.8 °F 68.0 °F 94% 29.95 in 0.8 mi Calm Calm - N/A   Mist
8:54 PM 68.0 °F 68.0 °F 100% 29.96 in 0.5 mi Calm Calm - 0.00 in Fog Fog
9:54 PM 68.0 °F 68.0 °F 100% 29.96 in 0.2 mi Calm Calm - N/A Fog Fog
10:54 PM 68.0 °F 66.9 °F 96% 29.97 in 0.2 mi North 3.5 mph - N/A Fog Fog
11:54 PM 68.0 °F 66.9 °F 96% 29.97 in 0.2 mi North 3.5 mph - N/A Fog Fog